| time (UTC) | temp F | wind direction | speed knots | gust knots | rain 1hr in | rain 24hr in | rain mn in | humidity % | barometer mb |
| 20260831214329 | 87 | 173 | 5.2 | 13.0 | 0.00 | 0.26 | 0.22 | 48 | 1012.4 |
| 20260831213356 | 87 | 156 | 4.3 | 12.2 | 0.00 | 0.26 | 0.22 | 49 | 1012.7 |
| 20260831212342 | 87 | 53 | 6.1 | 11.3 | 0.00 | 0.26 | 0.22 | 50 | 1013.0 |
| 20260831211331 | 86 | 175 | 4.3 | 13.0 | 0.00 | 0.26 | 0.22 | 53 | 1013.2 |
| 20260831210336 | 86 | 128 | 3.5 | 12.2 | 0.00 | 0.26 | 0.22 | 54 | 1013.3 |
| 20260831205348 | 86 | 107 | 7.8 | 14.8 | 0.00 | 0.26 | 0.22 | 52 | 1013.6 |
| 20260831204333 | 86 | 160 | 4.3 | 12.2 | 0.00 | 0.26 | 0.22 | 52 | 1013.7 |
| 20260831203340 | 86 | 163 | 7.0 | 13.0 | 0.00 | 0.26 | 0.22 | 51 | 1013.8 |
| 20260831202407 | 85 | 163 | 5.2 | 13.9 | 0.00 | 0.26 | 0.22 | 53 | 1013.9 |
| 20260831201337 | 85 | 133 | 6.1 | 10.4 | 0.00 | 0.26 | 0.22 | 54 | 1013.9 |
| 20260831200344 | 85 | 92 | 4.3 | 8.7 | 0.00 | 0.26 | 0.22 | 57 | 1014.0 |
| 20260831195329 | 85 | 145 | 6.1 | 12.2 | 0.00 | 0.26 | 0.22 | 56 | 1013.9 |
| 20260831194336 | 83 | 188 | 6.1 | 10.4 | 0.00 | 0.26 | 0.22 | 58 | 1014.0 |
| 20260831193341 | 83 | 146 | 4.3 | 11.3 | 0.00 | 0.26 | 0.22 | 59 | 1014.1 |
| 20260831192332 | 82 | 101 | 6.1 | 12.2 | 0.00 | 0.26 | 0.22 | 60 | 1014.1 |
| 20260831191339 | 82 | 98 | 7.0 | 10.4 | 0.00 | 0.26 | 0.22 | 61 | 1014.2 |
| 20260831190326 | 81 | 137 | 4.3 | 10.4 | 0.00 | 0.26 | 0.22 | 67 | 1014.4 |
| 20260831185338 | 80 | 71 | 2.6 | 9.6 | 0.00 | 0.26 | 0.22 | 71 | 1014.6 |
| 20260831184345 | 80 | 67 | 1.7 | 5.2 | 0.00 | 0.26 | 0.22 | 73 | 1014.5 |
| 20260831183331 | 79 | 66 | 2.6 | 8.7 | 0.00 | 0.26 | 0.22 | 74 | 1014.5 |
| 20260831182338 | 79 | 142 | 2.6 | 8.7 | 0.00 | 0.26 | 0.22 | 75 | 1014.4 |
| 20260831181328 | 79 | 105 | 4.3 | 9.6 | 0.00 | 0.26 | 0.22 | 74 | 1014.6 |
| 20260831180336 | 78 | 119 | 5.2 | 9.6 | 0.00 | 0.26 | 0.22 | 74 | 1014.6 |
| 20260831175340 | 78 | 171 | 3.5 | 11.3 | 0.00 | 0.26 | 0.22 | 75 | 1014.6 |
| 20260831174326 | 78 | 90 | 4.3 | 8.7 | 0.00 | 0.26 | 0.22 | 76 | 1014.6 |
| 20260831173337 | 78 | 113 | 4.3 | 9.6 | 0.00 | 0.26 | 0.22 | 77 | 1014.7 |
| 20260831172345 | 78 | 114 | 3.5 | 8.7 | 0.00 | 0.26 | 0.22 | 78 | 1014.9 |
| 20260831171331 | 77 | 65 | 1.7 | 6.1 | 0.00 | 0.26 | 0.22 | 80 | 1014.9 |
| 20260831170358 | 77 | 62 | 2.6 | 7.8 | 0.00 | 0.26 | 0.22 | 82 | 1014.7 |
| 20260831165404 | 76 | 93 | 1.7 | 9.6 | 0.00 | 0.26 | 0.22 | 82 | 1014.8 |
| 20260831164353 | 76 | 66 | 0.9 | 7.8 | 0.00 | 0.26 | 0.22 | 84 | 1014.7 |
| 20260831163339 | 75 | 114 | 1.7 | 11.3 | 0.00 | 0.26 | 0.22 | 85 | 1014.7 |
| 20260831162345 | 75 | 70 | 1.7 | 7.0 | 0.00 | 0.26 | 0.22 | 86 | 1014.5 |
| 20260831161332 | 74 | 104 | 1.7 | 7.8 | 0.02 | 0.26 | 0.22 | 85 | 1014.4 |
| 20260831160339 | 74 | 115 | 0.9 | 7.8 | 0.06 | 0.26 | 0.22 | 84 | 1014.5 |
| 20260831155350 | 74 | 71 | 2.6 | 7.0 | 0.15 | 0.26 | 0.22 | 84 | 1014.4 |
| 20260831154336 | 74 | 93 | 5.2 | 11.3 | 0.21 | 0.26 | 0.22 | 85 | 1014.4 |
| 20260831153341 | 74 | 66 | 4.3 | 9.6 | 0.21 | 0.26 | 0.22 | 85 | 1014.2 |
| 20260831152329 | 74 | 88 | 4.3 | 13.0 | 0.21 | 0.26 | 0.22 | 85 | 1014.3 |
| 20260831151339 | 75 | 56 | 7.0 | 11.3 | 0.19 | 0.24 | 0.20 | 84 | 1014.2 |
| 20260831150326 | 76 | 119 | 6.1 | 10.4 | 0.14 | 0.19 | 0.15 | 81 | 1014.5 |
| 20260831145332 | 78 | 116 | 3.5 | 10.4 | 0.06 | 0.11 | 0.07 | 78 | 1014.3 |
| 20260831144359 | 78 | 119 | 3.5 | 8.7 | 0.01 | 0.05 | 0.01 | 74 | 1013.9 |
| 20260831143348 | 79 | 142 | 4.3 | 8.7 | 0.01 | 0.05 | 0.01 | 72 | 1013.9 |
| 20260831142333 | 79 | 93 | 6.1 | 11.3 | 0.01 | 0.05 | 0.01 | 70 | 1013.1 |
| 20260831141400 | 79 | 126 | 3.5 | 9.6 | 0.01 | 0.05 | 0.01 | 71 | 1012.8 |
| 20260831140345 | 79 | 144 | 3.5 | 7.8 | 0.01 | 0.05 | 0.01 | 72 | 1012.6 |
| 20260831135351 | 79 | 172 | 2.6 | 7.0 | 0.01 | 0.05 | 0.01 | 72 | 1012.5 |
| 20260831134340 | 81 | 109 | 3.5 | 8.7 | 0.00 | 0.04 | 0.00 | 68 | 1012.3 |
| 20260831133407 | 82 | 121 | 3.5 | 8.7 | 0.00 | 0.04 | 0.00 | 63 | 1012.2 |
| 20260831132330 | 82 | 93 | 2.6 | 7.0 | 0.00 | 0.04 | 0.00 | 61 | 1011.9 |
| 20260831131336 | 82 | 113 | 2.6 | 9.6 | 0.00 | 0.04 | 0.00 | 60 | 1011.6 |
| 20260831130328 | 82 | 99 | 4.3 | 7.8 | 0.00 | 0.04 | 0.00 | 59 | 1011.2 |
| 20260831125335 | 82 | 98 | 1.7 | 7.8 | 0.00 | 0.04 | 0.00 | 58 | 1011.1 |
| 20260831124342 | 81 | 109 | 3.5 | 7.0 | 0.00 | 0.04 | 0.00 | 59 | 1011.2 |
| 20260831123328 | 81 | 116 | 1.7 | 6.1 | 0.00 | 0.04 | 0.00 | 62 | 1011.0 |
| 20260831122337 | 81 | 111 | 0.0 | 0.0 | 0.00 | 0.04 | 0.00 | 64 | 1010.9 |
| 20260831121343 | 81 | 132 | 0.0 | 0.0 | 0.00 | 0.04 | 0.00 | 64 | 1010.8 |
| 20260831120330 | 81 | 81 | 0.0 | 0.0 | 0.00 | 0.04 | 0.00 | 63 | 1010.5 |
| 20260831115336 | 81 | 81 | 0.0 | 5.2 | 0.00 | 0.04 | 0.00 | 63 | 1010.5 |
| 20260831114327 | 80 | 27 | 0.0 | 0.0 | 0.00 | 0.04 | 0.00 | 64 | 1010.3 |
| 20260831113353 | 80 | 320 | 0.0 | 0.0 | 0.00 | 0.04 | 0.00 | 63 | 1010.3 |
| 20260831112338 | 80 | 320 | 0.0 | 0.0 | 0.00 | 0.04 | 0.00 | 64 | 1010.3 |
| 20260831111344 | 80 | 320 | 0.0 | 0.0 | 0.00 | 0.04 | 0.00 | 64 | 1010.0 |
| 20260831110356 | 80 | 320 | 0.0 | 0.0 | 0.00 | 0.04 | 0.00 | 63 | 1009.7 |
| 20260831105403 | 81 | 252 | 0.0 | 0.9 | 0.00 | 0.04 | 0.00 | 62 | 1009.5 |
| 20260831104329 | 81 | 252 | 0.0 | 0.0 | 0.00 | 0.04 | 0.00 | 62 | 1009.4 |
| 20260831103336 | 81 | 252 | 0.0 | 0.9 | 0.00 | 0.04 | 0.00 | 61 | 1009.1 |
| 20260831102327 | 81 | 252 | 0.0 | 0.9 | 0.00 | 0.04 | 0.00 | 61 | 1009.1 |
| 20260831101335 | 81 | 207 | 0.0 | 0.9 | 0.00 | 0.04 | 0.00 | 61 | 1009.2 |
| 20260831100341 | 81 | 113 | 0.0 | 2.6 | 0.00 | 0.04 | 0.00 | 60 | 1009.3 |
| 20260831095327 | 81 | 163 | 0.9 | 6.1 | 0.00 | 0.04 | 0.00 | 60 | 1009.3 |
| 20260831094334 | 81 | 182 | 1.7 | 5.2 | 0.00 | 0.04 | 0.00 | 61 | 1009.4 |
| 20260831093344 | 82 | 167 | 0.9 | 7.0 | 0.00 | 0.04 | 0.00 | 61 | 1009.7 |
| 20260831092332 | 82 | 187 | 3.5 | 6.1 | 0.00 | 0.04 | 0.00 | 61 | 1009.7 |
| 20260831091339 | 82 | 144 | 2.6 | 8.7 | 0.00 | 0.04 | 0.00 | 62 | 1009.9 |
| 20260831090329 | 82 | 163 | 3.5 | 9.6 | 0.00 | 0.04 | 0.00 | 61 | 1009.7 |
| 20260831085356 | 82 | 173 | 2.6 | 6.1 | 0.00 | 0.04 | 0.00 | 60 | 1009.6 |
| 20260831084401 | 82 | 76 | 0.9 | 5.2 | 0.00 | 0.04 | 0.00 | 58 | 1009.5 |
| 20260831083328 | 82 | 156 | 3.5 | 5.2 | 0.00 | 0.04 | 0.00 | 59 | 1009.6 |
| 20260831082355 | 82 | 180 | 1.7 | 5.2 | 0.00 | 0.04 | 0.00 | 60 | 1009.7 |
| 20260831081326 | 82 | 127 | 1.7 | 4.3 | 0.00 | 0.04 | 0.00 | 59 | 1009.7 |
| 20260831080353 | 82 | 53 | 5.2 | 10.4 | 0.00 | 0.04 | 0.00 | 59 | 1009.8 |
| 20260831075338 | 81 | 340 | 4.3 | 9.6 | 0.00 | 0.04 | 0.00 | 61 | 1009.6 |
| 20260831074406 | 81 | 345 | 4.3 | 12.2 | 0.00 | 0.04 | 0.00 | 62 | 1009.6 |
| 20260831073331 | 81 | 334 | 7.0 | 14.8 | 0.00 | 0.04 | 0.00 | 64 | 1009.7 |
| 20260831072341 | 81 | 348 | 7.8 | 15.6 | 0.00 | 0.04 | 0.00 | 66 | 1009.8 |
| 20260831071347 | 81 | 360 | 6.1 | 17.4 | 0.00 | 0.04 | 0.00 | 67 | 1009.9 |
| 20260831070332 | 80 | 327 | 5.2 | 13.9 | 0.01 | 0.04 | 0.00 | 67 | 1009.9 |
| 20260831065400 | 80 | 331 | 10.4 | 20.9 | 0.01 | 0.04 | 0.04 | 68 | 1009.8 |
| 20260831064329 | 80 | 255 | 8.7 | 18.2 | 0.01 | 0.04 | 0.04 | 70 | 1009.6 |
| 20260831063335 | 80 | 24 | 9.6 | 21.7 | 0.02 | 0.04 | 0.04 | 70 | 1009.3 |
| 20260831062342 | 81 | 317 | 8.7 | 18.2 | 0.02 | 0.04 | 0.04 | 67 | 1009.6 |
| 20260831061329 | 82 | 11 | 10.4 | 20.0 | 0.03 | 0.04 | 0.04 | 66 | 1009.3 |
| 20260831060340 | 82 | 355 | 7.0 | 14.8 | 0.02 | 0.03 | 0.03 | 63 | 1009.2 |
| 20260831055327 | 82 | 42 | 0.0 | 2.6 | 0.03 | 0.03 | 0.03 | 61 | 1009.1 |
| 20260831054334 | 83 | 268 | 0.9 | 11.3 | 0.03 | 0.03 | 0.03 | 59 | 1009.2 |
| 20260831053342 | 82 | 242 | 3.5 | 10.4 | 0.02 | 0.02 | 0.02 | 60 | 1009.2 |
| 20260831052353 | 82 | 239 | 3.5 | 13.9 | 0.02 | 0.02 | 0.02 | 62 | 1009.4 |
| 20260831051339 | 82 | 225 | 9.6 | 20.0 | 0.01 | 0.01 | 0.01 | 62 | 1009.8 |
| 20260831050326 | 82 | 236 | 11.3 | 25.2 | 0.01 | 0.01 | 0.01 | 61 | 1010.0 |
| 20260831045333 | 84 | 232 | 10.4 | 20.0 | 0.00 | 0.00 | 0.00 | 58 | 1009.7 |
| 20260831044400 | 85 | 175 | 9.6 | 25.2 | 0.00 | 0.00 | 0.00 | 57 | 1008.9 |
| 20260831043329 | 87 | 186 | 10.4 | 20.0 | 0.00 | 0.00 | 0.00 | 55 | 1008.7 |
| 20260831042336 | 90 | 153 | 6.1 | 16.5 | 0.00 | 0.00 | 0.00 | 55 | 1007.8 |
| 20260831041402 | 93 | 211 | 9.6 | 19.1 | 0.00 | 0.00 | 0.00 | 43 | 1007.6 |
| 20260831040326 | 95 | 213 | 10.4 | 18.2 | 0.00 | 0.00 | 0.00 | 38 | 1007.7 |
| 20260831035337 | 99 | 170 | 11.3 | 23.5 | 0.00 | 0.00 | 0.00 | 33 | 1007.5 |
| 20260831034344 | 101 | 272 | 0.0 | 7.0 | 0.00 | 0.00 | 0.00 | 29 | 1007.1 |
| 20260831033332 | 101 | 312 | 0.9 | 6.1 | 0.00 | 0.00 | 0.00 | 29 | 1006.7 |
| 20260831032358 | 101 | 279 | 1.7 | 4.3 | 0.00 | 0.00 | 0.00 | 29 | 1006.8 |
| 20260831031347 | 101 | 316 | 0.9 | 2.6 | 0.00 | 0.00 | 0.00 | 29 | 1006.7 |
| 20260831030334 | 101 | 284 | 0.9 | 3.5 | 0.00 | 0.00 | 0.00 | 29 | 1006.5 |
| 20260831025341 | 101 | 258 | 2.6 | 7.0 | 0.00 | 0.00 | 0.00 | 29 | 1006.5 |
| 20260831024329 | 101 | 260 | 1.7 | 4.3 | 0.00 | 0.00 | 0.00 | 30 | 1006.4 |
| 20260831023340 | 101 | 278 | 1.7 | 3.5 | 0.00 | 0.00 | 0.00 | 30 | 1006.2 |
| 20260831022406 | 101 | 303 | 2.6 | 8.7 | 0.00 | 0.00 | 0.00 | 30 | 1006.1 |
| 20260831021331 | 102 | 300 | 0.9 | 4.3 | 0.00 | 0.00 | 0.00 | 30 | 1005.9 |
| 20260831020337 | 102 | 319 | 2.6 | 4.3 | 0.00 | 0.00 | 0.00 | 30 | 1005.8 |
| 20260831015348 | 102 | 313 | 1.7 | 7.0 | 0.00 | 0.00 | 0.00 | 30 | 1005.5 |
| 20260831014333 | 103 | 284 | 1.7 | 5.2 | 0.00 | 0.00 | 0.00 | 29 | 1005.4 |
| 20260831013340 | 103 | 324 | 0.9 | 6.1 | 0.00 | 0.00 | 0.00 | 29 | 1005.3 |
| 20260831012327 | 104 | 302 | 2.6 | 4.3 | 0.00 | 0.00 | 0.00 | 28 | 1005.3 |
| 20260831011339 | 104 | 303 | 2.6 | 7.0 | 0.00 | 0.00 | 0.00 | 28 | 1005.4 |
| 20260831010344 | 105 | 297 | 3.5 | 7.0 | 0.00 | 0.00 | 0.00 | 27 | 1005.4 |
| 20260831005350 | 105 | 11 | 1.7 | 4.3 | 0.00 | 0.00 | 0.00 | 28 | 1005.5 |
| 20260831004336 | 105 | 328 | 2.6 | 7.0 | 0.00 | 0.00 | 0.00 | 28 | 1005.5 |
| 20260831003327 | 105 | 333 | 2.6 | 5.2 | 0.00 | 0.00 | 0.00 | 28 | 1005.5 |
| 20260831002334 | 105 | 347 | 4.3 | 7.8 | 0.00 | 0.00 | 0.00 | 28 | 1005.5 |
| 20260831001340 | 105 | 334 | 2.6 | 9.6 | 0.00 | 0.00 | 0.00 | 28 | 1005.6 |
| 20260831000348 | 106 | 267 | 3.5 | 7.8 | 0.00 | 0.00 | 0.00 | 28 | 1005.7 |
| 20260830235333 | 107 | 275 | 5.2 | 7.8 | 0.00 | 0.00 | 0.00 | 27 | 1005.8 |
| 20260830234343 | 107 | 336 | 1.7 | 3.5 | 0.00 | 0.00 | 0.00 | 26 | 1005.8 |
| 20260830233331 | 107 | 208 | 0.0 | 7.0 | 0.00 | 0.00 | 0.00 | 27 | 1005.8 |
| 20260830232337 | 107 | 281 | 2.6 | 9.6 | 0.00 | 0.00 | 0.00 | 27 | 1006.1 |
| 20260830231345 | 107 | 250 | 2.6 | 7.0 | 0.00 | 0.00 | 0.00 | 27 | 1006.1 |
| 20260830230335 | 107 | 164 | 2.6 | 7.8 | 0.00 | 0.00 | 0.00 | 27 | 1006.2 |
| 20260830225402 | 107 | 190 | 4.3 | 8.7 | 0.00 | 0.00 | 0.00 | 26 | 1006.5 |
| 20260830224345 | 107 | 225 | 3.5 | 7.0 | 0.00 | 0.00 | 0.00 | 26 | 1006.6 |
| 20260830223333 | 107 | 243 | 3.5 | 6.1 | 0.00 | 0.00 | 0.00 | 26 | 1006.7 |
| 20260830222344 | 106 | 255 | 0.9 | 4.3 | 0.00 | 0.00 | 0.00 | 27 | 1006.8 |
| 20260830221331 | 106 | 261 | 2.6 | 7.0 | 0.00 | 0.00 | 0.00 | 26 | 1007.1 |
| 20260830220336 | 106 | 182 | 2.6 | 5.2 | 0.00 | 0.00 | 0.00 | 27 | 1007.3 |
| 20260830215344 | 106 | 223 | 5.2 | 7.0 | 0.00 | 0.00 | 0.00 | 27 | 1007.6 |